When you browse on this site, cookies collect data to enhance your experience and personalize the content and advertising you see.
Visit our Privacy Policy to learn more. By continuing to use the site, you agree to this use of cookies and data.
  • In Österreich
  • Länderverzeichnis
  • Für 7 Tage
  • Wassertemperatur
  • Satellitenkarten
  • Wetterkarte
  • News
  • Widgets
  • user-avatar
    Anmelden

    Stündliche Wetter Staunton

    Heute, 19 Februar, Dienstag

    Zeit Temperatur Niederschläge Wind Luftdruck Luftfeuchtigkeit
    00:00 -1°C° 0 mm 1 m/S 730 mmHg 73%
    01:00 -2°C° 0 mm 1 m/S 731 mmHg 73%
    02:00 -2°C° 0 mm 1 m/S 731 mmHg 72%
    03:00 -2°C° 0 mm 1 m/S 732 mmHg 71%
    04:00 -3°C° 0 mm 0 m/S 732 mmHg 70%
    05:00 -3°C° 0 mm 0 m/S 732 mmHg 70%
    06:00 -2°C° 0 mm 1 m/S 733 mmHg 70%
    07:00 -2°C° 0 mm 1 m/S 733 mmHg 70%
    08:00 -1°C° 0 mm 1 m/S 734 mmHg 62%
    09:00 +1°C° 0 mm 1 m/S 734 mmHg 54%
    10:00 +3°C° 0 mm 1 m/S 735 mmHg 46%
    11:00 +4°C° 0 mm 0 m/S 735 mmHg 43%
    12:00 +5°C° 0 mm 0 m/S 735 mmHg 40%
    13:00 +7°C° 0 mm 0 m/S 734 mmHg 37%
    14:00 +8°C° 0 mm 1 m/S 734 mmHg 39%
    15:00 +7°C° 0 mm 1 m/S 734 mmHg 42%
    16:00 +6°C° 0 mm 2 m/S 733 mmHg 44%
    17:00 +4°C° 0 mm 2 m/S 733 mmHg 54%
    18:00 +2°C° 0 mm 2 m/S 733 mmHg 63%
    19:00 +1°C° 0 mm 1 m/S 734 mmHg 73%
    20:00 +1°C° 0 mm 1 m/S 733 mmHg 72%
    21:00 +1°C° 0 mm 1 m/S 733 mmHg 72%
    22:00 +1°C° 0 mm 1 m/S 733 mmHg 72%
    23:00 +1°C° 0.2 mm 1 m/S 733 mmHg 76%

    Morgen, 20 Februar, Mittwoch

    Zeit Temperatur Niederschläge Wind Luftdruck Luftfeuchtigkeit
    00:00 +1°C° 0.2 mm 1 m/S 732 mmHg 80%
    01:00 0°C° 0.2 mm 1 m/S 732 mmHg 84%
    02:00 0°C° 1.4 mm 1 m/S 732 mmHg 88%
    03:00 0°C° 1.4 mm 1 m/S 731 mmHg 92%
    04:00 -3°C° 1.4 mm 2 m/S 731 mmHg 95%
    05:00 -3°C° 2.1 mm 2 m/S 730 mmHg 96%
    06:00 -3°C° 2.1 mm 2 m/S 730 mmHg 96%
    07:00 -3°C° 2.1 mm 2 m/S 730 mmHg 96%
    08:00 -3°C° 1.6 mm 2 m/S 729 mmHg 96%
    09:00 -3°C° 1.6 mm 2 m/S 729 mmHg 96%
    10:00 -4°C° 1.6 mm 3 m/S 729 mmHg 96%
    11:00 -3°C° 2.3 mm 2 m/S 729 mmHg 97%
    12:00 -3°C° 2.3 mm 2 m/S 728 mmHg 97%
    13:00 -2°C° 2.3 mm 1 m/S 728 mmHg 97%
    14:00 -3°C° 3 mm 2 m/S 727 mmHg 98%
    15:00 -2°C° 3 mm 2 m/S 726 mmHg 98%
    16:00 -2°C° 3 mm 2 m/S 726 mmHg 99%
    17:00 0°C° 0.8 mm 1 m/S 725 mmHg 99%
    18:00 +1°C° 0.8 mm 1 m/S 725 mmHg 99%
    19:00 +1°C° 0.8 mm 1 m/S 724 mmHg 99%
    20:00 +1°C° 1.5 mm 1 m/S 724 mmHg 99%
    21:00 +1°C° 1.5 mm 1 m/S 723 mmHg 99%
    22:00 +2°C° 1.5 mm 1 m/S 722 mmHg 99%
    23:00 +2°C° 0.2 mm 1 m/S 721 mmHg 99%

    übermorgen, 21 Februar, Donnerstag

    Zeit Temperatur Niederschläge Wind Luftdruck Luftfeuchtigkeit
    00:00 +2°C° 0.2 mm 2 m/S 721 mmHg 99%
    01:00 +2°C° 0.2 mm 2 m/S 720 mmHg 99%
    02:00 +1°C° 0 mm 3 m/S 719 mmHg 99%
    03:00 +2°C° 0 mm 3 m/S 719 mmHg 99%
    04:00 +2°C° 0 mm 3 m/S 718 mmHg 99%
    05:00 +2°C° 0.1 mm 3 m/S 719 mmHg 99%
    06:00 +2°C° 0.1 mm 3 m/S 719 mmHg 99%
    07:00 +3°C° 0.1 mm 3 m/S 719 mmHg 99%
    08:00 +4°C° 0 mm 2 m/S 720 mmHg 99%
    09:00 +5°C° 0 mm 2 m/S 721 mmHg 99%
    10:00 +5°C° 0 mm 2 m/S 722 mmHg 100%
    11:00 +6°C° 0 mm 2 m/S 722 mmHg 99%
    12:00 +6°C° 0 mm 2 m/S 722 mmHg 99%
    13:00 +7°C° 0 mm 1 m/S 722 mmHg 99%
    14:00 +7°C° 0 mm 1 m/S 722 mmHg 99%
    15:00 +7°C° 0 mm 1 m/S 722 mmHg 99%
    16:00 +7°C° 0 mm 1 m/S 722 mmHg 99%
    17:00 +6°C° 0 mm 1 m/S 723 mmHg 99%
    18:00 +5°C° 0 mm 1 m/S 723 mmHg 99%
    19:00 +4°C° 0 mm 1 m/S 724 mmHg 99%
    20:00 +4°C° 0 mm 1 m/S 725 mmHg 96%
    21:00 +4°C° 0 mm 1 m/S 725 mmHg 93%
    22:00 +3°C° 0 mm 1 m/S 726 mmHg 90%
    23:00 +3°C° 0 mm 1 m/S 726 mmHg 89%

    22 Februar, Freitag

    Zeit Temperatur Niederschläge Wind Luftdruck Luftfeuchtigkeit
    00:00 +3°C° 0 mm 1 m/S 726 mmHg 89%
    01:00 +3°C° 0 mm 1 m/S 726 mmHg 88%
    02:00 +3°C° 0.3 mm 1 m/S 726 mmHg 89%
    03:00 +2°C° 0.3 mm 0 m/S 727 mmHg 91%
    04:00 +2°C° 0.3 mm 0 m/S 727 mmHg 92%
    05:00 +2°C° 0.1 mm 0 m/S 727 mmHg 92%
    06:00 +2°C° 0.1 mm 0 m/S 728 mmHg 92%
    07:00 +2°C° 0.1 mm 0 m/S 728 mmHg 92%
    08:00 +2°C° 0 mm 0 m/S 729 mmHg 93%
    09:00 +3°C° 0 mm 0 m/S 729 mmHg 94%
    10:00 +4°C° 0 mm 0 m/S 730 mmHg 96%
    11:00 +4°C° 0 mm 0 m/S 730 mmHg 95%
    12:00 +5°C° 0 mm 0 m/S 730 mmHg 93%
    13:00 +6°C° 0 mm 0 m/S 730 mmHg 92%
    14:00 +7°C° 0 mm 1 m/S 730 mmHg 93%
    15:00 +7°C° 0 mm 1 m/S 730 mmHg 94%
    16:00 +7°C° 0 mm 1 m/S 730 mmHg 94%
    17:00 +6°C° 0 mm 1 m/S 730 mmHg 96%
    18:00 +5°C° 0 mm 1 m/S 730 mmHg 97%
    19:00 +4°C° 0 mm 1 m/S 731 mmHg 98%
    20:00 +3°C° 0 mm 0 m/S 731 mmHg 98%
    21:00 +3°C° 0 mm 0 m/S 731 mmHg 98%
    22:00 +3°C° 0 mm 0 m/S 731 mmHg 98%
    23:00 +3°C° 0 mm 0 m/S 731 mmHg 98%

    23 Februar, Samstag

    Zeit Temperatur Niederschläge Wind Luftdruck Luftfeuchtigkeit
    00:00 +4°C° 0 mm 1 m/S 730 mmHg 98%
    01:00 +4°C° 0 mm 1 m/S 730 mmHg 98%
    02:00 +4°C° 0 mm 1 m/S 730 mmHg 98%
    03:00 +4°C° 0 mm 1 m/S 729 mmHg 98%
    04:00 +4°C° 0 mm 1 m/S 729 mmHg 98%
    05:00 +4°C° 0.3 mm 1 m/S 729 mmHg 98%
    06:00 +3°C° 0.3 mm 1 m/S 729 mmHg 98%
    07:00 +3°C° 0.3 mm 1 m/S 729 mmHg 98%
    08:00 +4°C° 1.1 mm 1 m/S 729 mmHg 98%
    09:00 +4°C° 1.1 mm 1 m/S 729 mmHg 97%
    10:00 +3°C° 1.1 mm 2 m/S 729 mmHg 97%
    11:00 +3°C° 0.4 mm 2 m/S 728 mmHg 97%
    12:00 +4°C° 0.4 mm 2 m/S 728 mmHg 96%
    13:00 +4°C° 0.4 mm 2 m/S 727 mmHg 96%
    14:00 +4°C° 0.3 mm 2 m/S 727 mmHg 96%
    15:00 +4°C° 0.3 mm 2 m/S 726 mmHg 96%
    16:00 +4°C° 0.3 mm 2 m/S 725 mmHg 96%
    17:00 +4°C° 0.1 mm 2 m/S 725 mmHg 96%
    18:00 +5°C° 0.1 mm 1 m/S 724 mmHg 97%
    19:00 +4°C° 0.1 mm 1 m/S 724 mmHg 97%
    20:00 +5°C° 0.8 mm 1 m/S 723 mmHg 98%
    21:00 +5°C° 0.8 mm 1 m/S 723 mmHg 98%
    22:00 +4°C° 0.8 mm 2 m/S 722 mmHg 98%
    23:00 +5°C° 0.8 mm 2 m/S 721 mmHg 98%

    24 Februar, Sonntag

    Zeit Temperatur Niederschläge Wind Luftdruck Luftfeuchtigkeit
    00:00 +5°C° 0.8 mm 2 m/S 720 mmHg 98%
    01:00 +5°C° 0.8 mm 2 m/S 719 mmHg 98%
    02:00 +5°C° 0.2 mm 3 m/S 718 mmHg 98%
    03:00 +7°C° 0.2 mm 3 m/S 717 mmHg 97%
    04:00 +8°C° 0.2 mm 3 m/S 716 mmHg 97%
    05:00 +8°C° 0.1 mm 3 m/S 716 mmHg 97%
    06:00 +9°C° 0.1 mm 3 m/S 716 mmHg 97%
    07:00 +10°C° 0.1 mm 3 m/S 715 mmHg 97%
    08:00 +10°C° 1.5 mm 3 m/S 715 mmHg 97%
    09:00 +11°C° 1.5 mm 3 m/S 715 mmHg 97%
    10:00 +11°C° 1.5 mm 3 m/S 715 mmHg 97%
    11:00 +14°C° 0 mm 5 m/S 715 mmHg 89%
    12:00 +17°C° 0 mm 6 m/S 714 mmHg 82%
    13:00 +21°C° 0 mm 8 m/S 714 mmHg 74%
    14:00 +20°C° 0 mm 8 m/S 713 mmHg 71%
    15:00 +20°C° 0 mm 8 m/S 713 mmHg 67%
    16:00 +18°C° 0 mm 7 m/S 712 mmHg 64%
    17:00 +15°C° 0 mm 7 m/S 713 mmHg 66%
    18:00 +13°C° 0 mm 6 m/S 713 mmHg 68%
    19:00 +9°C° 0 mm 6 m/S 714 mmHg 70%
    20:00 +8°C° 0 mm 6 m/S 714 mmHg 70%
    21:00 +6°C° 0 mm 7 m/S 715 mmHg 70%
    22:00 +6°C° 0 mm 7 m/S 715 mmHg 70%
    23:00 +5°C° 0 mm 7 m/S 716 mmHg 69%
    Mehr zeigen